When you browse on this site, cookies collect data to enhance your experience and personalize the content and advertising you see.
Visit our Privacy Policy to learn more. By continuing to use the site, you agree to this use of cookies and data.
  • en Suisse
  • Liste des pays
  • À 7 jours
  • Température de l'eau
  • Carte météo
  • Widgets météo
  • user-avatar
    Se connecter

    Météo par heure à Abovyan

    Ce jour, 23 Octobre, Mercredi

    Heure Température Précipitation Vent Pression Humidité
    00:00 +13°C° 0 mm 1 m/s 674 mmHg 69%
    01:00 +13°C° 0 mm 1 m/s 674 mmHg 70%
    02:00 +13°C° 0 mm 1 m/s 674 mmHg 70%
    03:00 +12°C° 0 mm 1 m/s 674 mmHg 72%
    04:00 +12°C° 0 mm 1 m/s 673 mmHg 72%
    05:00 +11°C° 0 mm 1 m/s 673 mmHg 73%
    06:00 +10°C° 0 mm 0 m/s 673 mmHg 74%
    07:00 +12°C° 0 mm 1 m/s 674 mmHg 67%
    08:00 +14°C° 0 mm 1 m/s 674 mmHg 60%
    09:00 +15°C° 0 mm 0 m/s 675 mmHg 53%
    10:00 +18°C° 0 mm 1 m/s 675 mmHg 51%
    11:00 +19°C° 0 mm 1 m/s 675 mmHg 48%
    12:00 +20°C° 0 mm 1 m/s 675 mmHg 46%
    13:00 +20°C° 0 mm 1 m/s 674 mmHg 45%
    14:00 +20°C° 0 mm 1 m/s 674 mmHg 44%
    15:00 +19°C° 0 mm 2 m/s 673 mmHg 42%
    16:00 +19°C° 0 mm 1 m/s 673 mmHg 49%
    17:00 +16°C° 0 mm 1 m/s 673 mmHg 55%
    18:00 +13°C° 0 mm 0 m/s 673 mmHg 61%
    19:00 +13°C° 0 mm 0 m/s 673 mmHg 61%
    20:00 +14°C° 0 mm 1 m/s 673 mmHg 61%
    21:00 +13°C° 0 mm 1 m/s 673 mmHg 61%
    22:00 +13°C° 0 mm 1 m/s 673 mmHg 62%
    23:00 +12°C° 0 mm 1 m/s 673 mmHg 63%

    Demain, 24 Octobre, Jeudi

    Heure Température Précipitation Vent Pression Humidité
    00:00 +12°C° 0 mm 1 m/s 674 mmHg 64%
    01:00 +12°C° 0 mm 1 m/s 673 mmHg 65%
    02:00 +11°C° 0 mm 1 m/s 673 mmHg 66%
    03:00 +11°C° 0 mm 1 m/s 673 mmHg 67%
    04:00 +11°C° 0 mm 1 m/s 673 mmHg 67%
    05:00 +10°C° 0 mm 1 m/s 673 mmHg 67%
    06:00 +10°C° 0 mm 1 m/s 673 mmHg 67%
    07:00 +12°C° 0 mm 1 m/s 674 mmHg 59%
    08:00 +14°C° 0 mm 1 m/s 674 mmHg 51%
    09:00 +16°C° 0 mm 1 m/s 675 mmHg 43%
    10:00 +18°C° 0 mm 1 m/s 675 mmHg 42%
    11:00 +19°C° 0 mm 1 m/s 675 mmHg 41%
    12:00 +20°C° 0 mm 1 m/s 674 mmHg 39%
    13:00 +20°C° 0 mm 1 m/s 674 mmHg 39%
    14:00 +21°C° 0 mm 1 m/s 674 mmHg 39%
    15:00 +21°C° 0 mm 1 m/s 674 mmHg 39%
    16:00 +19°C° 0 mm 1 m/s 673 mmHg 44%
    17:00 +16°C° 0 mm 1 m/s 673 mmHg 48%
    18:00 +14°C° 0 mm 0 m/s 673 mmHg 53%
    19:00 +14°C° 0 mm 1 m/s 673 mmHg 54%
    20:00 +14°C° 0 mm 1 m/s 673 mmHg 55%
    21:00 +14°C° 0 mm 2 m/s 673 mmHg 56%
    22:00 +13°C° 0 mm 1 m/s 673 mmHg 58%
    23:00 +13°C° 0 mm 1 m/s 673 mmHg 60%

    Après-demain, 25 Octobre, Vendredi

    Heure Température Précipitation Vent Pression Humidité
    00:00 +12°C° 0 mm 1 m/s 673 mmHg 62%
    01:00 +12°C° 0 mm 1 m/s 673 mmHg 63%
    02:00 +11°C° 0 mm 1 m/s 673 mmHg 64%
    03:00 +11°C° 0 mm 1 m/s 673 mmHg 66%
    04:00 +11°C° 0 mm 1 m/s 672 mmHg 66%
    05:00 +10°C° 0 mm 1 m/s 672 mmHg 67%
    06:00 +10°C° 0 mm 1 m/s 672 mmHg 68%
    07:00 +12°C° 0 mm 1 m/s 673 mmHg 61%
    08:00 +14°C° 0 mm 1 m/s 673 mmHg 53%
    09:00 +16°C° 0 mm 1 m/s 674 mmHg 45%
    10:00 +19°C° 0 mm 1 m/s 674 mmHg 43%
    11:00 +19°C° 0 mm 2 m/s 674 mmHg 40%
    12:00 +20°C° 0 mm 2 m/s 673 mmHg 37%
    13:00 +20°C° 0 mm 2 m/s 673 mmHg 36%
    14:00 +21°C° 0 mm 1 m/s 673 mmHg 35%
    15:00 +22°C° 0 mm 1 m/s 673 mmHg 34%
    16:00 +20°C° 0 mm 1 m/s 672 mmHg 39%
    17:00 +18°C° 0 mm 1 m/s 672 mmHg 43%
    18:00 +14°C° 0 mm 0 m/s 672 mmHg 48%
    19:00 +14°C° 0 mm 1 m/s 672 mmHg 49%
    20:00 +14°C° 0 mm 1 m/s 672 mmHg 50%
    21:00 +14°C° 0 mm 1 m/s 672 mmHg 51%
    22:00 +13°C° 0 mm 1 m/s 672 mmHg 52%
    23:00 +13°C° 0 mm 1 m/s 672 mmHg 53%

    26 Octobre, Samedi

    Heure Température Précipitation Vent Pression Humidité
    00:00 +12°C° 0 mm 1 m/s 672 mmHg 54%
    01:00 +12°C° 0 mm 1 m/s 671 mmHg 56%
    02:00 +12°C° 0 mm 1 m/s 671 mmHg 58%
    03:00 +11°C° 0 mm 1 m/s 671 mmHg 59%
    04:00 +11°C° 0 mm 1 m/s 671 mmHg 60%
    05:00 +11°C° 0 mm 1 m/s 671 mmHg 61%
    06:00 +10°C° 0 mm 1 m/s 671 mmHg 62%
    07:00 +13°C° 0 mm 1 m/s 672 mmHg 55%
    08:00 +15°C° 0 mm 1 m/s 672 mmHg 47%
    09:00 +18°C° 0 mm 1 m/s 673 mmHg 39%
    10:00 +19°C° 0 mm 1 m/s 673 mmHg 37%
    11:00 +20°C° 0 mm 1 m/s 673 mmHg 34%
    12:00 +20°C° 0 mm 2 m/s 673 mmHg 32%
    13:00 +21°C° 0 mm 1 m/s 673 mmHg 32%
    14:00 +21°C° 0 mm 1 m/s 672 mmHg 33%
    15:00 +22°C° 0 mm 1 m/s 672 mmHg 33%
    16:00 +20°C° 0 mm 1 m/s 672 mmHg 38%
    17:00 +17°C° 0 mm 2 m/s 672 mmHg 43%
    18:00 +15°C° 0 mm 2 m/s 672 mmHg 47%
    19:00 +15°C° 0 mm 2 m/s 672 mmHg 50%
    20:00 +14°C° 0 mm 2 m/s 672 mmHg 53%
    21:00 +14°C° 0 mm 2 m/s 672 mmHg 55%
    22:00 +13°C° 0 mm 2 m/s 672 mmHg 58%
    23:00 +13°C° 0 mm 2 m/s 672 mmHg 60%

    27 Octobre, Dimanche

    Heure Température Précipitation Vent Pression Humidité
    00:00 +12°C° 0 mm 2 m/s 672 mmHg 63%
    01:00 +12°C° 0 mm 2 m/s 672 mmHg 63%
    02:00 +10°C° 0 mm 2 m/s 672 mmHg 64%
    03:00 +10°C° 0 mm 2 m/s 672 mmHg 65%
    04:00 +11°C° 0 mm 1 m/s 672 mmHg 66%
    05:00 +10°C° 0 mm 1 m/s 672 mmHg 66%
    06:00 +10°C° 0 mm 1 m/s 672 mmHg 67%
    07:00 +12°C° 0 mm 1 m/s 672 mmHg 60%
    08:00 +14°C° 0 mm 1 m/s 673 mmHg 52%
    09:00 +16°C° 0 mm 1 m/s 673 mmHg 44%
    10:00 +18°C° 0 mm 1 m/s 673 mmHg 42%
    11:00 +19°C° 0 mm 1 m/s 673 mmHg 40%
    12:00 +19°C° 0 mm 2 m/s 673 mmHg 38%
    13:00 +20°C° 0 mm 1 m/s 673 mmHg 37%
    14:00 +21°C° 0 mm 1 m/s 673 mmHg 36%
    15:00 +21°C° 0 mm 1 m/s 672 mmHg 35%
    16:00 +19°C° 0 mm 1 m/s 672 mmHg 40%
    17:00 +16°C° 0 mm 1 m/s 672 mmHg 46%
    18:00 +13°C° 0 mm 0 m/s 672 mmHg 51%
    19:00 +14°C° 0 mm 1 m/s 672 mmHg 53%
    20:00 +14°C° 0 mm 1 m/s 672 mmHg 54%
    21:00 +13°C° 0 mm 1 m/s 672 mmHg 56%
    22:00 +13°C° 0 mm 1 m/s 672 mmHg 57%
    23:00 +12°C° 0 mm 1 m/s 672 mmHg 59%

    28 Octobre, Lundi

    Heure Température Précipitation Vent Pression Humidité
    00:00 +12°C° 0 mm 1 m/s 672 mmHg 61%
    01:00 +12°C° 0 mm 1 m/s 671 mmHg 63%
    02:00 +11°C° 0 mm 1 m/s 671 mmHg 65%
    03:00 +11°C° 0 mm 1 m/s 671 mmHg 67%
    04:00 +11°C° 0 mm 1 m/s 671 mmHg 67%
    05:00 +10°C° 0 mm 1 m/s 671 mmHg 68%
    06:00 +10°C° 0 mm 1 m/s 670 mmHg 69%
    07:00 +12°C° 0 mm 1 m/s 671 mmHg 61%
    08:00 +14°C° 0 mm 1 m/s 671 mmHg 54%
    09:00 +16°C° 0 mm 1 m/s 672 mmHg 46%
    10:00 +18°C° 0 mm 1 m/s 672 mmHg 43%
    11:00 +19°C° 0 mm 1 m/s 671 mmHg 41%
    12:00 +19°C° 0 mm 2 m/s 671 mmHg 38%
    13:00 +19°C° 0 mm 2 m/s 671 mmHg 37%
    14:00 +20°C° 0 mm 2 m/s 671 mmHg 35%
    15:00 +21°C° 0 mm 1 m/s 670 mmHg 34%
    16:00 +19°C° 0 mm 1 m/s 670 mmHg 39%
    17:00 +16°C° 0 mm 1 m/s 670 mmHg 43%
    18:00 +15°C° 0 mm 1 m/s 669 mmHg 48%
    19:00 +14°C° 0 mm 1 m/s 669 mmHg 49%
    20:00 +14°C° 0 mm 1 m/s 670 mmHg 49%
    21:00 +14°C° 0 mm 1 m/s 670 mmHg 50%
    22:00 +13°C° 0 mm 1 m/s 670 mmHg 51%
    23:00 +13°C° 0 mm 1 m/s 669 mmHg 52%

    29 Octobre, Mardi

    Heure Température Précipitation Vent Pression Humidité
    00:00 +13°C° 0 mm 1 m/s 669 mmHg 53%
    01:00 +12°C° 0 mm 1 m/s 669 mmHg 56%
    02:00 +12°C° 0 mm 1 m/s 669 mmHg 59%
    03:00 +11°C° 0 mm 1 m/s 668 mmHg 62%
    04:00 +11°C° 0 mm 1 m/s 668 mmHg 63%
    05:00 +11°C° 0 mm 1 m/s 668 mmHg 64%
    06:00 +10°C° 0 mm 1 m/s 668 mmHg 64%
    07:00 +12°C° 0 mm 1 m/s 669 mmHg 57%
    08:00 +14°C° 0 mm 1 m/s 669 mmHg 49%
    09:00 +16°C° 0 mm 1 m/s 670 mmHg 42%
    10:00 +18°C° 0 mm 1 m/s 670 mmHg 40%
    11:00 +18°C° 0 mm 2 m/s 670 mmHg 37%
    12:00 +19°C° 0 mm 2 m/s 670 mmHg 35%
    13:00 +20°C° 0 mm 2 m/s 670 mmHg 34%
    14:00 +20°C° 0 mm 2 m/s 669 mmHg 34%
    15:00 +20°C° 0 mm 2 m/s 669 mmHg 34%
    16:00 +18°C° 0 mm 2 m/s 669 mmHg 40%
    17:00 +17°C° 0 mm 2 m/s 669 mmHg 46%
    18:00 +14°C° 0 mm 3 m/s 669 mmHg 53%
    19:00 +14°C° 0.1 mm 2 m/s 669 mmHg 55%
    20:00 +14°C° 0.1 mm 2 m/s 669 mmHg 57%
    21:00 +13°C° 0.1 mm 1 m/s 669 mmHg 59%
    22:00 +13°C° 0 mm 1 m/s 669 mmHg 61%
    23:00 +12°C° 0 mm 1 m/s 669 mmHg 63%
    Voir plus